• în România
  • Lista ţărilor
  • Pe 7 zile
  • Temperatura apei
  • Hartă satelitară
  • Meteo pe hartă
  • Widget-uri
  • user-avatar
    Intrare

    Meteo pe oră la Yevlakh

    Astăzi, 22 Februarie, Joi

    Timp Temperatura Precipitaţii Vânt Presiune Umiditate
    00:00 +9°C° 0,1 mm 1 m/s 763 mmHg 86%
    01:00 +9°C° 0,1 mm 1 m/s 763 mmHg 86%
    02:00 +9°C° 0,1 mm 1 m/s 762 mmHg 86%
    03:00 +8°C° 0 mm 0 m/s 762 mmHg 83%
    04:00 +7°C° 0 mm 0 m/s 762 mmHg 83%
    05:00 +7°C° 0 mm 0 m/s 762 mmHg 84%
    06:00 +7°C° 0 mm 0 m/s 762 mmHg 85%
    07:00 +9°C° 0 mm 1 m/s 762 mmHg 82%
    08:00 +9°C° 0 mm 1 m/s 761 mmHg 79%
    09:00 +10°C° 0 mm 1 m/s 761 mmHg 76%
    10:00 +10°C° 0 mm 1 m/s 761 mmHg 72%
    11:00 +11°C° 0 mm 1 m/s 760 mmHg 69%
    12:00 +12°C° 0 mm 1 m/s 760 mmHg 66%
    13:00 +12°C° 0 mm 1 m/s 760 mmHg 64%
    14:00 +13°C° 0 mm 1 m/s 759 mmHg 61%
    15:00 +13°C° 0 mm 1 m/s 759 mmHg 59%
    16:00 +12°C° 0 mm 1 m/s 759 mmHg 63%
    17:00 +12°C° 0 mm 1 m/s 760 mmHg 66%
    18:00 +10°C° 0 mm 0 m/s 760 mmHg 69%
    19:00 +10°C° 0 mm 0 m/s 760 mmHg 71%
    20:00 +9°C° 0 mm 0 m/s 760 mmHg 73%
    21:00 +9°C° 0 mm 0 m/s 760 mmHg 76%
    22:00 +10°C° 0 mm 1 m/s 760 mmHg 78%
    23:00 +9°C° 0 mm 1 m/s 760 mmHg 80%

    Mâine, 23 Februarie, Vineri

    Timp Temperatura Precipitaţii Vânt Presiune Umiditate
    00:00 +9°C° 0 mm 1 m/s 761 mmHg 82%
    01:00 +9°C° 0 mm 1 m/s 761 mmHg 83%
    02:00 +8°C° 0 mm 1 m/s 760 mmHg 85%
    03:00 +8°C° 0 mm 1 m/s 760 mmHg 86%
    04:00 +7°C° 0 mm 0 m/s 761 mmHg 87%
    05:00 +7°C° 0 mm 0 m/s 761 mmHg 87%
    06:00 +6°C° 0 mm 0 m/s 761 mmHg 88%
    07:00 +8°C° 0 mm 1 m/s 761 mmHg 85%
    08:00 +9°C° 0 mm 1 m/s 760 mmHg 82%
    09:00 +10°C° 0 mm 1 m/s 760 mmHg 79%
    10:00 +11°C° 0 mm 1 m/s 760 mmHg 75%
    11:00 +12°C° 0 mm 2 m/s 760 mmHg 72%
    12:00 +13°C° 0 mm 2 m/s 759 mmHg 68%
    13:00 +13°C° 0 mm 2 m/s 759 mmHg 65%
    14:00 +14°C° 0 mm 2 m/s 759 mmHg 61%
    15:00 +14°C° 0 mm 2 m/s 758 mmHg 58%
    16:00 +14°C° 0 mm 2 m/s 758 mmHg 62%
    17:00 +13°C° 0 mm 2 m/s 758 mmHg 66%
    18:00 +12°C° 0 mm 2 m/s 759 mmHg 70%
    19:00 +12°C° 0 mm 2 m/s 759 mmHg 73%
    20:00 +10°C° 0 mm 2 m/s 759 mmHg 76%
    21:00 +9°C° 0 mm 2 m/s 759 mmHg 80%
    22:00 +10°C° 0 mm 1 m/s 759 mmHg 81%
    23:00 +9°C° 0 mm 1 m/s 758 mmHg 82%

    Poimâine, 24 Februarie, Sâmbătă

    Timp Temperatura Precipitaţii Vânt Presiune Umiditate
    00:00 +9°C° 0 mm 1 m/s 758 mmHg 84%
    01:00 +9°C° 0 mm 1 m/s 758 mmHg 84%
    02:00 +9°C° 0 mm 1 m/s 758 mmHg 84%
    03:00 +9°C° 0 mm 1 m/s 758 mmHg 84%
    04:00 +8°C° 0 mm 1 m/s 758 mmHg 83%
    05:00 +8°C° 0 mm 1 m/s 758 mmHg 82%
    06:00 +7°C° 0 mm 2 m/s 757 mmHg 81%
    07:00 +8°C° 0 mm 2 m/s 757 mmHg 74%
    08:00 +9°C° 0 mm 2 m/s 757 mmHg 67%
    09:00 +12°C° 0 mm 2 m/s 757 mmHg 61%
    10:00 +13°C° 0 mm 2 m/s 757 mmHg 55%
    11:00 +14°C° 0 mm 2 m/s 757 mmHg 50%
    12:00 +16°C° 0 mm 2 m/s 757 mmHg 44%
    13:00 +16°C° 0 mm 2 m/s 756 mmHg 42%
    14:00 +17°C° 0 mm 2 m/s 756 mmHg 40%
    15:00 +17°C° 0 mm 2 m/s 755 mmHg 38%
    16:00 +16°C° 0 mm 1 m/s 756 mmHg 41%
    17:00 +15°C° 0 mm 1 m/s 756 mmHg 45%
    18:00 +14°C° 0 mm 1 m/s 756 mmHg 49%
    19:00 +14°C° 0 mm 1 m/s 757 mmHg 51%
    20:00 +13°C° 0 mm 1 m/s 757 mmHg 53%
    21:00 +13°C° 0 mm 2 m/s 757 mmHg 55%
    22:00 +12°C° 0 mm 2 m/s 757 mmHg 56%
    23:00 +10°C° 0 mm 2 m/s 757 mmHg 57%

    25 Februarie, Duminică

    Timp Temperatura Precipitaţii Vânt Presiune Umiditate
    00:00 +11°C° 0 mm 1 m/s 757 mmHg 58%
    01:00 +10°C° 0 mm 1 m/s 757 mmHg 59%
    02:00 +10°C° 0 mm 1 m/s 757 mmHg 60%
    03:00 +10°C° 0 mm 1 m/s 756 mmHg 60%
    04:00 +9°C° 0 mm 1 m/s 756 mmHg 61%
    05:00 +9°C° 0 mm 1 m/s 756 mmHg 61%
    06:00 +9°C° 0 mm 1 m/s 756 mmHg 62%
    07:00 +10°C° 0 mm 1 m/s 756 mmHg 57%
    08:00 +11°C° 0 mm 1 m/s 756 mmHg 53%
    09:00 +12°C° 0 mm 1 m/s 756 mmHg 49%
    10:00 +13°C° 0 mm 1 m/s 755 mmHg 45%
    11:00 +14°C° 0 mm 1 m/s 755 mmHg 41%
    12:00 +15°C° 0 mm 1 m/s 754 mmHg 38%
    13:00 +15°C° 0 mm 1 m/s 754 mmHg 36%
    14:00 +16°C° 0 mm 1 m/s 753 mmHg 34%
    15:00 +16°C° 0 mm 1 m/s 753 mmHg 32%
    16:00 +16°C° 0 mm 1 m/s 753 mmHg 36%
    17:00 +15°C° 0 mm 1 m/s 753 mmHg 40%
    18:00 +14°C° 0 mm 1 m/s 754 mmHg 44%
    19:00 +13°C° 0 mm 1 m/s 754 mmHg 47%
    20:00 +13°C° 0 mm 1 m/s 754 mmHg 49%
    21:00 +12°C° 0 mm 1 m/s 754 mmHg 51%
    22:00 +12°C° 0 mm 1 m/s 754 mmHg 52%
    23:00 +11°C° 0 mm 1 m/s 754 mmHg 52%

    26 Februarie, Luni

    Timp Temperatura Precipitaţii Vânt Presiune Umiditate
    00:00 +11°C° 0 mm 1 m/s 754 mmHg 53%
    01:00 +11°C° 0 mm 1 m/s 754 mmHg 51%
    02:00 +10°C° 0 mm 1 m/s 754 mmHg 50%
    03:00 +9°C° 0 mm 2 m/s 754 mmHg 48%
    04:00 +9°C° 0 mm 2 m/s 754 mmHg 46%
    05:00 +9°C° 0 mm 2 m/s 754 mmHg 44%
    06:00 +8°C° 0 mm 2 m/s 754 mmHg 42%
    07:00 +10°C° 0 mm 2 m/s 754 mmHg 39%
    08:00 +12°C° 0 mm 2 m/s 754 mmHg 35%
    09:00 +13°C° 0 mm 2 m/s 754 mmHg 32%
    10:00 +14°C° 0 mm 2 m/s 754 mmHg 31%
    11:00 +14°C° 0 mm 3 m/s 754 mmHg 29%
    12:00 +17°C° 0 mm 3 m/s 754 mmHg 28%
    13:00 +17°C° 0 mm 4 m/s 754 mmHg 29%
    14:00 +17°C° 0 mm 4 m/s 754 mmHg 29%
    15:00 +18°C° 0 mm 4 m/s 754 mmHg 30%
    16:00 +17°C° 0 mm 3 m/s 754 mmHg 33%
    17:00 +14°C° 0 mm 3 m/s 755 mmHg 37%
    18:00 +14°C° 0 mm 2 m/s 756 mmHg 40%
    19:00 +14°C° 0 mm 2 m/s 756 mmHg 43%
    20:00 +13°C° 0 mm 2 m/s 757 mmHg 46%
    21:00 +13°C° 0 mm 2 m/s 758 mmHg 49%
    22:00 +12°C° 0 mm 2 m/s 758 mmHg 56%
    23:00 +10°C° 0 mm 2 m/s 758 mmHg 64%

    27 Februarie, Marţi

    Timp Temperatura Precipitaţii Vânt Presiune Umiditate
    00:00 +9°C° 0 mm 3 m/s 759 mmHg 71%
    01:00 +9°C° 0 mm 3 m/s 759 mmHg 74%
    02:00 +8°C° 0 mm 3 m/s 759 mmHg 78%
    03:00 +8°C° 0 mm 2 m/s 759 mmHg 82%
    04:00 +8°C° 0 mm 2 m/s 760 mmHg 82%
    05:00 +8°C° 0 mm 2 m/s 760 mmHg 83%
    06:00 +7°C° 0 mm 2 m/s 760 mmHg 83%
    07:00 +8°C° 0,1 mm 3 m/s 761 mmHg 81%
    08:00 +8°C° 0,1 mm 3 m/s 761 mmHg 79%
    09:00 +9°C° 0,1 mm 3 m/s 761 mmHg 77%
    10:00 +8°C° 0,1 mm 4 m/s 761 mmHg 77%
    11:00 +8°C° 0,1 mm 4 m/s 761 mmHg 76%
    12:00 +8°C° 0,1 mm 4 m/s 761 mmHg 75%
    13:00 +8°C° 0 mm 4 m/s 761 mmHg 75%
    14:00 +8°C° 0 mm 4 m/s 761 mmHg 74%
    15:00 +8°C° 0 mm 4 m/s 760 mmHg 74%
    16:00 +9°C° 0 mm 3 m/s 761 mmHg 76%
    17:00 +9°C° 0 mm 3 m/s 761 mmHg 78%
    18:00 +8°C° 0 mm 2 m/s 761 mmHg 80%
    19:00 +8°C° 0 mm 2 m/s 761 mmHg 81%
    20:00 +8°C° 0 mm 2 m/s 762 mmHg 82%
    21:00 +7°C° 0 mm 2 m/s 762 mmHg 83%
    22:00 +7°C° 0 mm 2 m/s 762 mmHg 84%
    23:00 +8°C° 0 mm 1 m/s 762 mmHg 85%
    Arată mai mult